CW2433 Weather Reports


time (UTC)temp
F
wind
direction
speed
knots
gust
knots
rain 1hr
in
rain 24hr
in
rain mn
in
humidity
%
barometer
mb
20260505011509 62 348 11.3 20.9 0.00 0.00 0.00 38 1007.3
20260505011010 63 351 11.3 20.9 0.00 0.00 0.00 38 1007.4
20260505010510 63 329 10.4 21.7 0.00 0.00 0.00 37 1007.1
20260505010009 63 348 14.8 21.7 0.00 0.00 0.00 36 1007.3
20260505005009 65 323 8.7 19.1 0.00 0.00 0.00 35 1007.0
20260505004509 65 331 9.6 20.9 0.00 0.00 0.00 34 1007.0
20260505004009 66 5 9.6 22.6 0.00 0.00 0.00 34 1006.7
20260505002509 67 0 11.3 19.1 0.00 0.00 0.00 33 1006.3
20260505002009 68 351 8.7 19.1 0.00 0.00 0.00 32 1006.2
20260505001509 68 34 10.4 20.0 0.00 0.00 0.00 32 1006.2
20260505001009 69 317 12.2 20.0 0.00 0.00 0.00 32 1006.0
20260505000509 69 355 8.7 19.1 0.00 0.00 0.00 32 1005.9
20260505000008 70 355 9.6 19.1 0.00 0.00 0.00 33 1006.0
20260504235509 70 0 11.3 20.0 0.00 0.00 0.00 32 1006.0
20260504235009 70 0 8.7 20.0 0.00 0.00 0.00 32 1006.0
20260504234509 71 51 7.8 18.2 0.00 0.00 0.00 31 1005.8
20260504234009 71 13 9.6 17.4 0.00 0.00 0.00 31 1005.8
20260504233509 71 351 8.7 19.1 0.00 0.00 0.00 30 1005.8
20260504233009 72 0 8.7 19.1 0.00 0.00 0.00 30 1005.6
20260504232508 72 344 8.7 19.1 0.00 0.00 0.00 30 1005.4
20260504231510 73 344 10.4 24.3 0.00 0.00 0.00 30 1005.2
20260504231010 73 297 12.2 22.6 0.00 0.00 0.00 29 1005.2
20260504230509 73 353 13.0 22.6 0.00 0.00 0.00 29 1004.9
20260504230009 74 311 12.2 20.9 0.00 0.00 0.00 28 1004.8
20260504225009 74 305 12.2 20.0 0.00 0.00 0.00 28 1004.5
20260504224510 75 327 8.7 20.0 0.00 0.00 0.00 29 1004.5
20260504223010 76 350 9.6 20.0 0.00 0.00 0.00 29 1004.1
20260504222509 76 345 6.1 20.0 0.00 0.00 0.00 29 1003.9
20260504222009 76 344 12.2 20.0 0.00 0.00 0.00 28 1004.0
20260504221510 76 343 8.7 20.0 0.00 0.00 0.00 28 1003.7
20260504221009 76 15 11.3 20.0 0.00 0.00 0.00 28 1003.7
20260504220510 77 336 7.8 21.7 0.00 0.00 0.00 28 1003.5
20260504220010 77 356 11.3 21.7 0.00 0.00 0.00 27 1003.5
20260504215510 77 328 6.1 17.4 0.00 0.00 0.00 29 1003.4
20260504214510 78 359 10.4 20.9 0.00 0.00 0.00 27 1003.4
20260504214010 79 336 4.3 13.0 0.00 0.00 0.00 28 1003.3
20260504213010 79 342 6.1 13.0 0.00 0.00 0.00 29 1003.3
20260504212510 79 294 6.1 13.0 0.00 0.00 0.00 28 1003.2
20260504212010 80 355 6.1 11.3 0.00 0.00 0.00 29 1003.1
20260504211510 80 345 6.1 11.3 0.00 0.00 0.00 29 1003.1
20260504211010 80 308 2.6 10.4 0.00 0.00 0.00 30 1003.0
20260504210510 80 345 2.6 10.4 0.00 0.00 0.00 31 1003.1
20260504205510 80 298 3.5 10.4 0.00 0.00 0.00 31 1002.8
20260504205010 80 341 3.5 13.0 0.00 0.00 0.00 31 1002.8
20260504204510 80 340 5.2 15.6 0.00 0.00 0.00 30 1002.8
20260504204010 80 323 8.7 15.6 0.00 0.00 0.00 30 1002.7
20260504203510 80 275 4.3 12.2 0.00 0.00 0.00 32 1002.7
20260504203010 80 24 7.0 13.0 0.00 0.00 0.00 31 1002.7
20260504202509 80 324 2.6 17.4 0.00 0.00 0.00 33 1002.7
20260504202010 80 31 7.8 17.4 0.00 0.00 0.00 32 1002.7
20260504201510 80 342 4.3 17.4 0.00 0.00 0.00 34 1002.7
20260504200509 81 68 7.0 13.9 0.00 0.00 0.00 34 1002.7
20260504200008 81 0 2.6 13.9 0.00 0.00 0.00 35 1002.6
20260504195509 81 267 1.7 14.8 0.00 0.00 0.00 35 1002.5
20260504195009 81 32 7.8 14.8 0.00 0.00 0.00 33 1002.4
20260504194009 81 317 2.6 12.2 0.00 0.00 0.00 34 1002.2
20260504193509 81 311 2.6 14.8 0.00 0.00 0.00 33 1002.2
20260504193009 81 5 5.2 14.8 0.00 0.00 0.00 33 1002.2
20260504192508 81 283 1.7 10.4 0.00 0.00 0.00 35 1002.2
20260504192010 81 300 3.5 10.4 0.00 0.00 0.00 34 1002.1
20260504191510 81 309 4.3 10.4 0.00 0.00 0.00 32 1002.1
20260504191009 81 352 5.2 10.4 0.00 0.00 0.00 31 1002.1
20260504190509 82 276 2.6 12.2 0.00 0.00 0.00 34 1002.1
20260504190012 82 272 3.5 12.2 0.00 0.00 0.00 32 1002.0
20260504185509 82 291 3.5 11.3 0.00 0.00 0.00 33 1001.9
20260504185009 82 313 3.5 14.8 0.00 0.00 0.00 30 1001.8
20260504184009 82 342 4.3 10.4 0.00 0.00 0.00 31 1001.7
20260504183509 82 280 3.5 7.8 0.00 0.00 0.00 31 1001.6
20260504183010 82 285 1.7 13.9 0.00 0.00 0.00 29 1001.8
20260504182510 82 251 5.2 13.9 0.00 0.00 0.00 31 1001.6
20260504182009 82 255 2.6 10.4 0.00 0.00 0.00 31 1001.7
20260504181510 82 245 2.6 10.4 0.00 0.00 0.00 31 1001.8
20260504181010 82 347 4.3 11.3 0.00 0.00 0.00 30 1001.8
20260504180510 82 337 4.3 11.3 0.00 0.00 0.00 30 1001.8
20260504180010 82 266 2.6 13.0 0.00 0.00 0.00 30 1001.9
20260504175010 82 351 5.2 13.0 0.00 0.00 0.00 32 1002.0
20260504174510 81 279 4.3 10.4 0.00 0.00 0.00 33 1002.0
20260504174010 81 280 2.6 10.4 0.00 0.00 0.00 35 1002.0
20260504173510 81 285 1.7 10.4 0.00 0.00 0.00 33 1002.0
20260504173011 80 277 2.6 12.2 0.00 0.00 0.00 35 1002.0
20260504172010 81 257 2.6 8.7 0.00 0.00 0.00 33 1002.1
20260504171510 80 291 2.6 10.4 0.00 0.00 0.00 34 1002.1
20260504170510 79 268 1.7 5.2 0.00 0.00 0.00 40 1002.3
20260504151009 67 255 1.7 6.1 0.00 0.00 0.00 50 1002.6
20260504150509 66 251 0.9 2.6 0.00 0.00 0.00 51 1002.7
20260504140509 61 253 2.6 4.3 0.00 0.00 0.00 58 1003.5
20260504130510 54 218 0.9 1.7 0.00 0.00 0.00 85 1003.5
20260504100509 49 243 0.0 0.0 0.00 0.00 0.00 78 1003.3
20260504081510 51 243 0.0 0.0 0.00 0.00 0.00 76 1004.5
20260504081010 51 243 0.0 0.0 0.00 0.00 0.00 76 1004.6
20260504080510 51 242 0.0 0.0 0.00 0.00 0.00 76 1004.7
20260504045512 58 243 0.0 0.0 0.00 0.00 0.00 59 1007.1
20260504045010 58 243 0.0 0.0 0.00 0.00 0.00 60 1007.1
20260504044510 58 243 0.0 0.0 0.00 0.00 0.00 59 1007.2
20260504043509 59 243 0.0 0.0 0.00 0.00 0.00 58 1007.3
20260504043010 59 243 0.0 0.0 0.00 0.00 0.00 57 1007.3
20260504042510 60 242 0.0 0.0 0.00 0.00 0.00 57 1007.3
20260504042010 60 244 0.0 0.0 0.00 0.00 0.00 57 1007.4
20260504041509 60 244 0.0 0.0 0.00 0.00 0.00 57 1007.5
20260504041011 60 243 0.0 0.0 0.00 0.00 0.00 57 1007.5
20260504040009 61 244 0.0 0.0 0.00 0.00 0.00 55 1007.8
20260504035509 61 243 0.0 0.0 0.00 0.00 0.00 55 1007.8
20260504035009 62 243 0.0 0.0 0.00 0.00 0.00 54 1007.8
20260504034508 62 244 0.0 0.0 0.00 0.00 0.00 53 1007.9
20260504033509 62 244 0.0 0.0 0.00 0.00 0.00 53 1008.1
20260504033009 63 244 0.0 0.0 0.00 0.00 0.00 52 1008.1
20260504032508 63 244 0.0 0.0 0.00 0.00 0.00 52 1008.2
20260504031508 63 244 0.0 0.0 0.00 0.00 0.00 51 1008.2
20260504031009 63 244 0.0 0.0 0.00 0.00 0.00 51 1008.1
20260504030010 64 244 0.0 0.0 0.00 0.00 0.00 50 1008.3
20260504025009 64 244 0.0 0.0 0.00 0.00 0.00 49 1008.3
20260504024009 65 244 0.0 0.0 0.00 0.00 0.00 48 1008.3
20260504023509 65 244 0.0 0.0 0.00 0.00 0.00 46 1008.3
20260504023013 65 244 0.0 0.0 0.00 0.00 0.00 46 1008.3
20260504022509 66 244 0.0 0.0 0.00 0.00 0.00 45 1008.2
20260504022009 66 244 0.0 0.0 0.00 0.00 0.00 45 1008.3
20260504021009 67 244 0.0 0.0 0.00 0.00 0.00 43 1008.4
20260504020509 67 244 0.0 0.0 0.00 0.00 0.00 42 1008.4
20260504020009 68 244 0.0 0.0 0.00 0.00 0.00 42 1008.5
20260504015509 68 244 0.0 0.0 0.00 0.00 0.00 41 1008.6
20260504015010 69 244 0.0 0.0 0.00 0.00 0.00 40 1008.6
20260504014510 69 244 0.0 0.0 0.00 0.00 0.00 39 1008.6
20260504014009 70 244 0.0 0.0 0.00 0.00 0.00 38 1008.4
20260504013510 70 244 0.0 0.0 0.00 0.00 0.00 37 1008.3
20260504013010 71 244 0.0 0.0 0.00 0.00 0.00 37 1008.3
20260504012010 72 244 0.0 0.0 0.00 0.00 0.00 35 1008.3